Weather in Tsvetkovo

Ukraine / Cherkassi District     49˚09′18″N   31˚31′52″E
temp.,
°C
wind,
m/s
gust,
m/s
humid.,
%
clouds,
%
prec.,
mm/h
press.,
hPa
HPBL,
m
17 january, sun
sun1723:00−15˚nw358235 0.0 1017435
02:00−15˚nnw248318 0.0 1017369
05:00−15˚nnw23850 0.0 1017262
08:00−15˚nnw23860 0.0 1017219
11:00−13˚nnw22710 0.0 1017477
14:00−12˚nw226736 0.0 1017608
17:00−13˚n248149 0.0 1017316
20:00−13˚n238625 0.0 1017200
18 january, mon
mon1823:00−13˚n129365 0.0 1018123
02:00−14˚nw239462 0.0 1018162
05:00−14˚nnw259099 0.0 1018271
08:00−14˚nnw2490100 0.0 1019280
11:00−12˚nnw2379100 0.0 1019510
14:00−11˚nw3478100 0.1 1018702
17:00−12˚nw3483100 0.1 1019586
20:00−12˚nw3483100 0.1 1019520
19 january, tue
tue1923:00−12˚nw3586100 0.0 1020507
02:00−13˚nw4587100 0.1 1020432
05:00−14˚nw468799 0.1 1020456
08:00−15˚nw4688100 0.1 1021382
11:00−13˚nw458198 0.0 1021405
14:00−12˚wnw457999 0.0 1020443
17:00−12˚nw258899 0.0 1021361
20:00−13˚wnw239387 0.0 1022104
20 january, wed
wed2023:00−13˚w229333 0.0 102333
02:00−13˚wsw229151 0.0 102439
05:00−13˚ssw22904 0.0 102429
08:00−13˚s23872 0.0 102556
11:00−9˚s35730 0.0 1025258
14:00−7˚s46740 0.0 1024323
17:00−9˚sse488812 0.0 1024175
20:00−9˚sse410886 0.0 1024234
21 january, thu
thu2123:00−9˚sse510927 0.0 1024260
02:00−5˚s5119638 0.0 1024408
05:00−5˚s51094100 0.0 1023307
08:00−4˚s51094100 0.1 1023302
11:00−1˚s51090100 0.0 1023527
14:00+1˚s51090100 0.0 1021558
17:00−1˚s499696 0.0 1021269
20:00s4109596 0.0 1021314